Dewpoint
8 10 11 10 10 11 9 9 5 7 7 6 5 9 8 8 9 9 12 13 12 12 14 13 10 9 7 -1 3 10 8 -0 10 11 11 12 12 12 12 7 -4 2 3 8 8 6 8 9 6
7 9 10 10 11 11 10 6 6 6 6 5 8 11 11 10 11 14 14 14 12 12 14 13 10 9 3 -2 12 13 12 9 11 11 13 13 14 12 8 -3 -11 -5 -0 4 2 3 6 6 5
7 9 10 10 10 10 8 4 4 4 7 7 10 11 11 13 14 13 15 14 12 13 14 12 10 10 -0 2 14 14 13 10 12 13 14 14 13 10 1 -10 -8 -1 0 3 5 4 4 4 2
8 9 10 11 10 7 5 1 1 7 9 10 11 12 14 14 15 14 14 13 12 13 13 13 12 11 -1 1 14 15 14 13 13 14 15 14 11 -3 -9 -10 -2 -0 1 3 4 4 3 2 2
7 8 8 9 9 6 4 -2 3 7 9 10 11 12 14 15 14 14 14 13 13 13 13 13 12 10 -3 -2 14 15 15 15 15 14 12 9 -3 -8 -10 -5 -1 0 1 2 4 4 4 4 4
7 8 8 9 8 6 3 1 1 7 9 10 10 11 13 14 15 14 14 13 13 13 13 13 12 8 -3 -4 10 14 13 14 13 11 9 0 -8 -10 -6 -3 -1 -0 1 2 3 4 4 5 4
7 7 7 6 8 7 4 0 2 6 8 9 9 11 13 15 15 14 14 13 13 13 13 13 12 6 2 -6 6 11 12 12 12 11 3 -8 -9 -7 -4 -2 -1 -0 1 1 2 3 3 3 4
6 7 8 6 8 7 2 0 1 4 5 8 8 11 12 15 15 15 14 13 13 13 13 13 12 8 9 4 -5 7 11 12 10 1 -7 -8 -7 -5 -3 -2 -1 -0 1 1 2 1 2 2 3
6 7 7 6 7 6 0 1 3 7 8 9 7 8 7 14 15 15 15 14 13 13 13 13 11 10 12 10 5 -6 -7 -7 -7 -7 -6 -6 -5 -4 -2 -1 -1 0 1 1 1 1 0 1 1
5 7 6 6 5 7 7 3 8 9 12 10 8 9 7 11 15 15 14 14 13 13 13 13 12 10 11 11 10 0 -7 -8 -6 -5 -5 -5 -4 -3 -2 -1 -1 -0 0 0 0 0 1 1 0
5 6 6 5 6 5 7 6 7 10 11 10 9 8 9 9 15 15 14 14 14 13 13 13 12 11 7 13 11 7 1 -5 -5 -4 -4 -4 -3 -2 -2 -2 -1 -1 -1 -1 -1 -1 -1 -1 -0
5 4 5 5 6 8 7 6 7 9 9 8 6 4 8 10 12 11 14 14 13 13 14 13 12 11 4 7 12 11 7 1 -3 -5 -4 -4 -4 -3 -2 -3 -3 -3 -3 -3 -3 -3 -3 -2 1
5 4 4 4 6 9 7 6 7 9 11 11 8 7 12 11 9 10 8 13 13 13 13 14 13 11 4 2 8 12 11 7 2 -1 -2 -3 -3 -3 -2 -2 -2 -2 -2 -2 -1 -0 -0 2 2
3 4 4 4 5 6 8 7 7 8 10 12 10 9 10 10 10 10 10 9 13 14 13 13 13 12 8 3 2 8 10 12 9 3 2 1 1 1 1 1 1 -0 2 2 3 4 5 5 5
4 4 4 5 5 6 7 8 7 6 11 11 9 9 9 10 10 10 10 8 11 13 13 12 12 13 11 7 3 2 6 9 10 7 6 5 4 5 7 5 4 6 6 5 5 6 7 7 8
5 4 6 4 4 4 7 9 6 6 8 9 10 9 9 9 7 11 10 12 12 11 11 13 11 12 13 11 7 4 3 4 8 8 9 7 6 8 9 8 8 8 8 7 6 6 7 8 8
5 6 6 5 4 5 7 8 5 5 6 6 8 10 9 9 9 10 10 11 10 11 10 9 8 12 12 13 11 9 7 4 3 5 7 6 8 9 9 9 9 10 10 9 8 8 8 9 9
7 7 6 6 4 5 6 6 4 4 5 6 5 6 10 10 10 11 9 11 9 9 7 6 6 9 13 12 12 12 11 9 6 5 4 7 9 10 10 11 11 11 11 10 9 10 10 10 10
5 6 6 5 4 6 6 5 4 4 4 4 4 4 5 11 10 11 10 10 10 7 7 7 6 6 7 11 12 11 12 11 11 10 9 11 11 11 11 11 11 11 11 11 11 10 11 11 11
5 6 7 6 6 5 6 5 3 4 4 4 3 4 4 5 11 10 10 11 9 8 7 8 8 8 8 9 11 11 11 11 12 11 11 10 10 12 11 11 11 11 10 10 11 11 11 12 11
3 5 6 6 6 6 6 6 5 4 4 3 3 4 4 4 3 7 10 10 10 11 9 8 9 9 8 9 8 9 8 10 12 10 12 11 11 12 12 11 11 11 12 10 10 10 11 11 10
4 2 3 7 7 8 6 6 4 4 4 3 1 3 4 3 3 3 4 10 10 10 11 11 11 11 10 9 10 10 9 8 10 10 9 12 11 11 11 12 12 12 13 12 11 10 11 10 9
3 3 5 6 5 6 7 7 5 3 5 3 2 3 4 3 3 2 2 4 7 9 9 10 11 11 10 8 11 12 11 10 11 9 11 11 11 12 12 12 12 12 12 11 11 11 11 9 8
3 4 5 5 5 7 5 6 4 5 4 3 2 2 3 3 2 1 1 2 3 4 6 9 10 10 11 10 10 11 11 11 11 10 10 11 11 11 11 12 11 11 11 11 11 12 10 8 9
3 4 6 8 8 6 2 6 4 1 0 -1 -0 0 1 1 1 0 1 1 2 3 3 3 3 5 8 9 10 9 10 10 10 10 10 10 10 10 10 10 11 11 11 11 11 11 8 8 7
4 4 4 6 6 5 4 7 4 1 -0 -1 -1 -2 -2 -2 -1 -0 2 1 2 3 3 2 0 1 3 5 8 9 9 9 9 9 9 10 10 10 10 10 10 10 11 11 11 9 8 7 1
4 6 3 3 1 3 3 2 -2 -4 -3 -3 -4 -4 -3 -3 -2 -2 -2 -0 0 1 2 1 0 0 1 3 6 7 7 7 6 7 7 8 8 8 10 9 10 11 11 8 8 8 3 1 -0
4 4 7 7 6 6 2 1 0 -3 -4 -5 -4 -3 -3 -2 1 -1 -3 -4 -4 -1 0 1 0 1 2 4 5 5 5 6 6 6 7 7 8 8 9 10 10 10 9 8 8 6 6 2 -1
6 6 5 5 4 5 3 -0 -4 -3 -4 -3 -5 -3 -3 -2 1 2 0 -2 -2 -1 -0 -0 0 1 2 3 2 2 3 4 5 5 5 6 8 10 11 11 11 10 10 9 6 2 0 0 0
3 5 5 6 6 1 1 1 -5 -4 -2 -1 -3 -2 -2 -2 -1 1 2 2 -1 -1 -1 -0 1 1 1 1 3 3 3 2 1 2 3 5 8 10 10 10 10 9 5 0 0 2 3 3 3
Wind_Speed
23 21 19 17 6 3 14 10 7 12 11 10 11 6 10 6 9 3 7 29 38 36 32 27 23 19 17 18 20 20 20 21 24 23 22 21 19 17 16 13 15 18 18 20 20 21 22 22 21
21 25 19 11 7 10 13 14 17 12 15 22 6 5 3 4 6 4 18 29 39 37 32 27 23 19 18 22 23 23 22 24 24 24 23 21 20 17 14 15 18 20 21 21 20 21 20 19 19
23 24 11 6 8 17 15 12 12 13 12 22 9 5 4 2 6 10 13 33 39 36 31 26 22 20 19 25 24 22 23 24 24 25 24 22 19 14 16 19 21 22 22 21 20 21 20 19 18
13 18 11 7 22 17 20 13 14 13 9 19 11 3 2 4 10 15 25 39 39 35 30 25 22 19 21 27 26 24 25 25 25 25 23 21 16 17 20 22 23 23 22 21 20 20 19 18 17
21 11 12 13 17 17 19 8 20 17 14 16 23 3 4 7 13 19 34 41 39 35 29 26 21 19 22 27 28 26 26 27 27 23 21 18 18 22 23 24 23 23 21 20 20 19 18 16 15
10 5 9 10 11 23 16 24 17 16 21 19 16 5 4 7 16 26 36 40 36 34 29 25 21 19 22 25 28 27 26 26 23 18 17 18 23 24 24 24 24 22 20 18 17 16 15 13 13
7 7 3 2 14 13 20 29 10 17 19 23 28 7 5 12 21 32 38 39 36 32 29 24 21 21 22 22 27 26 24 23 21 18 18 23 25 25 24 23 22 21 18 16 14 13 12 11 10
8 3 4 7 7 16 16 17 13 19 21 24 37 10 7 18 28 34 39 37 35 32 29 26 22 22 24 20 22 25 24 22 20 20 24 25 25 25 23 22 20 19 17 14 12 10 9 8 8
8 5 2 13 6 8 11 16 16 7 18 13 26 28 34 19 36 36 38 36 35 31 29 26 24 22 25 21 19 22 23 23 23 25 26 26 25 24 22 20 18 17 15 13 11 8 7 6 5
2 4 2 10 8 5 10 10 14 6 8 6 19 24 32 12 40 41 39 40 37 34 31 27 25 24 27 24 21 21 23 25 25 26 27 26 25 23 21 19 17 15 14 12 10 8 6 5 4
4 4 5 10 15 15 14 12 5 10 11 16 25 22 40 17 29 42 37 37 37 34 30 28 24 22 26 28 24 23 23 24 25 25 25 24 24 22 21 19 17 14 12 11 9 8 7 5 4
3 8 7 17 19 10 22 10 6 16 6 27 38 28 38 45 13 10 24 35 34 32 30 26 22 20 23 28 25 24 24 24 24 24 24 23 22 21 19 16 14 13 11 10 10 9 8 7 6
1 4 9 19 20 18 23 17 7 4 2 24 32 24 34 25 30 34 10 22 31 31 30 27 22 18 21 24 26 25 23 24 23 23 22 21 19 18 16 14 13 12 10 9 9 9 8 8 6
5 9 16 17 24 30 14 16 3 5 6 27 38 33 32 33 30 28 25 25 33 31 30 26 23 19 19 19 22 25 24 22 22 22 20 19 17 16 14 12 11 10 10 9 9 8 8 7 6
9 3 11 10 21 10 3 11 4 15 8 28 36 40 37 35 36 33 33 30 35 33 30 26 21 20 19 18 18 21 23 22 22 21 19 18 18 16 13 11 11 10 9 9 9 8 8 7 5
5 6 5 5 17 16 13 11 4 16 9 11 22 28 30 28 20 27 29 38 37 30 28 24 22 20 19 19 19 19 21 23 23 22 21 19 18 17 14 11 10 11 10 9 9 9 9 8 7
1 3 3 8 11 13 7 4 4 12 15 12 9 15 29 32 29 35 33 36 33 34 28 21 14 20 21 19 19 19 18 20 22 23 22 21 19 16 15 12 11 10 10 9 10 11 10 9 7
7 6 5 4 3 13 11 4 5 8 12 9 9 7 21 27 29 29 34 35 33 36 27 27 17 13 18 21 21 23 21 19 21 21 21 20 20 17 15 13 11 11 11 12 12 12 11 9 6
4 9 4 3 5 8 7 11 7 7 5 6 6 7 6 18 26 25 32 30 29 36 27 30 41 26 20 22 25 24 23 22 21 20 21 22 19 17 17 14 12 11 9 10 13 13 13 10 8
3 7 3 1 8 8 5 14 8 3 3 0 3 2 3 10 21 29 27 28 36 36 27 36 34 38 37 27 21 22 23 23 23 23 25 25 23 21 19 16 15 14 12 12 15 16 14 13 9
1 4 5 5 7 0 2 7 5 1 3 6 6 7 8 7 13 17 30 34 33 36 37 40 33 29 29 27 26 27 26 33 29 29 28 25 27 27 22 20 20 20 18 17 16 18 18 10 4
2 1 4 8 8 1 2 2 4 4 6 3 10 14 14 12 11 12 15 23 31 34 35 37 35 34 30 33 41 36 31 37 35 31 23 30 24 26 20 26 25 23 23 22 18 19 17 11 10
3 2 6 4 2 3 3 1 5 5 5 8 12 19 24 19 17 15 14 17 18 22 26 28 32 33 35 38 37 39 39 33 28 24 26 29 22 27 26 26 25 26 29 25 23 24 19 11 18
4 5 6 4 2 1 5 5 4 6 5 5 5 20 24 27 25 21 18 17 21 21 22 23 25 26 30 31 28 27 29 29 27 24 23 26 24 22 22 25 26 25 24 25 29 25 22 13 20
1 3 1 2 2 3 3 4 6 5 4 6 7 12 21 22 24 23 24 22 22 21 19 20 20 21 24 23 24 23 25 22 22 21 21 20 18 17 15 15 17 20 21 18 23 20 15 14 17
4 3 4 5 4 2 2 6 5 6 8 13 13 16 5 17 21 24 25 25 24 23 22 21 19 20 21 20 22 21 20 18 18 19 17 17 16 15 14 14 13 14 13 13 16 17 14 14 15
1 4 2 5 2 1 3 4 10 5 7 8 8 7 6 6 12 18 22 25 27 26 24 21 18 18 19 20 20 20 19 18 18 18 16 15 15 16 15 15 13 13 15 14 15 14 13 13 13
3 1 2 2 4 3 3 4 5 5 6 5 3 3 7 8 6 8 18 25 32 33 28 24 20 18 17 18 17 17 17 17 17 17 17 17 18 18 18 17 16 17 15 16 16 15 16 15 14
1 2 1 1 2 3 2 4 4 4 4 6 4 3 4 7 7 10 9 11 17 26 27 26 24 20 17 16 16 16 15 15 15 15 16 16 16 17 18 18 19 16 16 15 15 13 12 13 14
3 1 2 3 4 1 2 4 2 4 6 6 4 8 6 7 9 11 13 13 12 17 19 22 22 20 19 16 13 13 12 13 13 12 13 12 11 12 16 20 18 16 15 14 12 12 13 15 17
Wind_Direction
240 240 223 191 187 205 211 222 220 183 195 194 154 164 188 168 165 205 166 170 170 166 167 171 169 166 164 161 152 146 140 146 152 155 157 151 152 147 137 130 130 132 127 118 114 115 113 108 103
240 238 236 207 214 194 209 216 208 188 195 182 163 154 159 207 204 154 150 166 170 165 166 168 166 163 160 156 150 148 146 149 154 155 151 151 149 141 133 131 130 125 120 122 114 116 114 110 104
235 233 224 207 203 201 209 202 212 208 164 168 173 197 211 186 191 168 172 163 168 165 166 166 163 160 157 155 150 145 148 153 156 153 150 150 146 141 138 133 128 125 123 119 116 115 114 112 104
237 242 247 235 203 203 200 189 194 174 121 148 174 334 241 200 177 175 167 166 168 165 165 164 163 160 159 159 152 143 144 151 153 152 149 149 149 144 139 134 131 130 127 122 117 119 115 110 103
236 240 228 199 214 210 207 186 168 171 161 147 143 291 301 185 183 174 166 167 169 164 161 166 164 160 160 163 160 150 145 146 148 151 151 154 149 143 139 137 137 136 132 128 123 119 116 112 103
239 231 190 217 230 197 212 226 179 171 156 151 130 145 289 210 187 175 167 168 169 162 162 165 163 162 160 164 170 163 158 157 159 157 156 153 147 143 141 142 141 140 137 133 127 123 118 111 102
230 260 189 302 211 212 213 221 205 184 168 166 166 119 277 192 182 172 169 168 167 163 162 163 162 160 159 157 170 170 167 166 166 168 160 152 147 146 145 146 146 145 142 136 132 127 121 113 103
210 220 195 183 210 222 202 221 244 188 194 159 163 153 245 204 175 170 167 167 165 165 164 165 163 161 159 156 158 172 177 178 177 170 158 153 151 150 150 149 150 149 149 146 142 136 128 117 108
193 196 279 202 217 234 186 204 222 199 151 164 173 159 204 217 167 170 166 164 166 167 169 168 167 164 162 162 159 160 166 169 169 163 158 157 156 154 153 153 153 154 157 156 156 152 142 133 125
186 239 7 315 185 244 324 235 165 167 148 135 156 169 194 243 174 170 168 167 169 170 172 173 172 170 169 165 169 164 163 164 165 165 163 161 159 157 157 158 159 161 165 166 166 167 165 161 150
207 176 10 319 261 230 285 306 230 169 184 176 169 168 193 233 170 168 168 170 170 172 174 177 175 177 179 171 175 175 169 167 167 168 166 164 163 163 164 165 167 170 174 177 176 180 185 184 180
178 112 46 330 323 231 248 284 269 179 197 187 181 188 187 204 116 55 176 173 174 173 178 179 179 182 180 184 179 180 178 171 170 170 171 171 171 171 171 173 176 181 185 188 189 190 193 193 190
331 49 354 348 330 318 246 249 283 320 173 185 182 174 184 177 194 230 262 186 180 181 182 183 182 186 185 187 191 188 189 180 177 175 175 177 177 177 177 180 184 188 192 194 194 189 187 188 194
138 54 358 347 331 322 234 237 278 301 291 173 176 186 193 186 197 194 184 204 195 189 186 182 184 185 190 189 194 198 198 193 190 185 183 182 183 185 185 190 193 193 195 197 197 195 194 193 189
92 143 353 31 340 295 185 211 13 340 303 175 182 189 190 190 172 180 185 188 196 197 190 183 187 190 193 195 195 200 205 204 201 197 196 192 192 191 196 200 195 196 202 205 206 206 205 197 193
105 85 340 343 6 317 310 185 345 17 96 113 189 186 191 193 182 201 199 185 186 194 196 179 186 201 203 200 202 201 206 210 210 207 206 203 201 204 206 207 205 207 212 215 216 215 213 209 203
49 131 308 346 343 300 286 147 324 22 55 71 119 175 195 191 197 193 199 196 198 194 183 181 193 207 205 213 214 212 212 215 217 217 215 213 208 210 215 215 212 218 224 231 231 224 217 215 212
152 125 198 218 17 287 351 16 332 0 49 50 67 93 176 190 191 193 188 188 199 203 210 212 213 219 218 217 223 221 215 219 219 219 216 207 211 214 219 214 214 228 237 241 241 231 217 209 202
115 112 172 167 201 245 340 298 310 330 31 37 42 70 97 183 185 200 202 200 203 193 193 204 218 222 236 239 228 223 224 220 220 215 214 213 210 213 212 212 221 229 248 267 250 234 222 211 220
119 123 140 129 212 253 54 304 302 299 295 210 315 306 127 142 179 189 209 212 195 199 197 183 194 212 229 240 246 241 234 241 232 230 226 230 228 219 219 223 230 240 254 258 243 231 226 230 238
88 138 156 197 187 299 116 298 294 274 231 248 247 258 260 209 160 182 202 212 205 204 210 204 207 208 215 227 237 235 258 244 242 242 244 237 235 231 227 231 238 243 242 245 240 228 225 233 251
125 187 180 148 164 131 137 306 287 275 231 232 237 235 240 233 213 188 192 198 206 211 220 225 226 224 223 225 232 232 237 223 238 250 277 242 248 249 244 240 243 245 240 239 232 234 225 227 270
212 144 157 151 143 77 196 334 273 293 250 218 232 225 228 227 232 222 211 203 203 210 215 223 226 223 219 226 232 233 215 219 220 222 237 252 255 253 247 245 249 250 252 245 231 225 226 231 253
160 76 53 47 29 221 187 190 261 222 236 311 202 233 233 228 226 229 229 219 210 209 210 212 213 219 224 231 233 232 230 226 233 234 236 244 240 246 251 251 254 259 263 258 247 243 226 283 247
67 88 80 167 202 218 304 198 273 248 255 253 262 250 246 253 248 247 239 228 219 214 213 217 224 222 218 223 226 222 227 232 232 237 238 240 241 252 258 259 260 266 271 264 248 226 243 233 243
214 197 162 197 181 197 192 217 247 226 217 257 243 271 234 221 233 243 229 224 223 224 225 225 227 229 230 224 226 229 232 233 237 240 243 243 245 250 259 261 259 258 249 234 229 232 221 233 249
214 205 185 112 63 109 236 273 279 237 251 248 252 246 163 174 202 219 225 228 225 220 221 221 231 231 232 228 226 230 233 234 237 241 244 246 248 252 251 249 245 224 207 206 215 224 232 244 262
203 174 138 143 153 197 288 277 252 348 11 1 20 354 143 146 144 195 214 221 219 212 216 218 220 226 229 226 227 232 234 235 239 241 243 242 244 245 241 232 217 205 208 214 218 230 244 255 264
242 192 134 187 237 164 181 262 239 295 325 313 341 113 127 114 102 105 134 183 198 202 210 218 219 217 222 224 232 235 233 233 232 230 229 230 228 225 222 212 201 209 218 222 233 237 245 255 268
147 17 263 217 192 55 128 275 308 321 317 292 257 140 127 112 102 91 99 114 155 190 200 209 209 210 215 217 221 219 222 227 228 227 225 221 215 204 205 203 205 208 212 213 222 243 259 269 273
Height
1496 1497 1501 1504 1509 1504 1498 1491 1485 1487 1491 1491 1490 1495 1495 1496 1498 1503 1495 1499 1504 1511 1517 1522 1525 1529 1532 1534 1536 1537 1539 1543 1547 1550 1552 1554 1556 1558 1560 1562 1564 1566 1567 1569 1570 1571 1572 1574 1575
1493 1493 1494 1492 1492 1494 1489 1485 1482 1480 1480 1487 1491 1492 1495 1493 1494 1494 1496 1500 1506 1510 1517 1521 1525 1529 1531 1534 1536 1538 1540 1544 1548 1550 1552 1555 1557 1559 1561 1563 1564 1566 1568 1570 1572 1573 1574 1576 1577
1487 1489 1484 1476 1476 1478 1479 1479 1476 1479 1481 1482 1491 1491 1494 1492 1493 1493 1495 1500 1506 1511 1516 1521 1525 1528 1531 1534 1537 1539 1541 1545 1549 1551 1553 1555 1558 1560 1562 1564 1565 1567 1570 1572 1573 1575 1576 1577 1578
1483 1482 1473 1462 1467 1467 1467 1470 1474 1477 1481 1480 1487 1490 1493 1491 1492 1493 1495 1501 1507 1512 1516 1521 1525 1528 1531 1534 1538 1540 1542 1546 1550 1553 1554 1556 1558 1560 1562 1564 1566 1569 1571 1573 1575 1577 1578 1579 1580
1479 1475 1462 1454 1464 1460 1464 1466 1469 1473 1475 1478 1481 1492 1493 1492 1494 1494 1496 1501 1507 1512 1517 1521 1525 1528 1531 1534 1538 1541 1544 1547 1551 1554 1555 1557 1558 1561 1563 1565 1568 1570 1572 1574 1576 1577 1579 1580 1581
1477 1467 1449 1466 1465 1464 1468 1465 1465 1467 1472 1475 1479 1493 1491 1491 1493 1493 1497 1501 1509 1511 1517 1521 1525 1528 1531 1533 1537 1541 1545 1548 1551 1554 1556 1557 1559 1562 1564 1567 1569 1571 1573 1575 1577 1579 1580 1581 1582
1472 1467 1466 1474 1467 1463 1463 1464 1466 1464 1468 1470 1471 1481 1492 1490 1492 1494 1496 1501 1508 1512 1517 1522 1525 1528 1531 1534 1537 1541 1545 1548 1551 1554 1556 1559 1561 1564 1566 1569 1571 1572 1574 1576 1578 1579 1581 1582 1583
1473 1473 1463 1479 1466 1462 1461 1463 1463 1461 1464 1466 1468 1476 1488 1485 1490 1495 1497 1502 1507 1512 1516 1520 1524 1528 1531 1535 1538 1541 1545 1549 1552 1554 1557 1560 1562 1565 1567 1570 1573 1574 1575 1577 1578 1579 1581 1582 1583
1470 1470 1472 1462 1470 1462 1460 1459 1460 1462 1460 1464 1465 1461 1474 1471 1486 1492 1496 1500 1506 1511 1514 1519 1523 1528 1531 1535 1538 1541 1545 1549 1552 1555 1558 1560 1563 1565 1568 1571 1573 1575 1576 1577 1579 1580 1581 1582 1583
1468 1464 1469 1466 1460 1464 1460 1457 1457 1461 1461 1463 1466 1470 1470 1477 1476 1487 1493 1496 1502 1507 1512 1518 1523 1527 1531 1534 1538 1542 1545 1548 1552 1556 1558 1560 1563 1566 1568 1571 1574 1576 1578 1578 1579 1580 1580 1581 1583
1468 1466 1474 1471 1466 1464 1461 1461 1456 1457 1458 1455 1461 1465 1465 1476 1465 1483 1491 1495 1500 1506 1512 1517 1522 1526 1530 1534 1538 1542 1545 1548 1552 1556 1559 1561 1563 1566 1568 1571 1573 1575 1577 1578 1579 1580 1580 1581 1582
1467 1470 1473 1473 1467 1468 1463 1460 1457 1453 1453 1454 1459 1461 1468 1482 1470 1487 1499 1495 1498 1504 1511 1517 1522 1526 1530 1534 1537 1541 1545 1547 1551 1555 1558 1561 1563 1566 1568 1571 1573 1575 1577 1578 1579 1579 1580 1580 1581
1466 1469 1473 1472 1468 1460 1459 1458 1459 1454 1452 1454 1460 1463 1468 1467 1475 1488 1483 1491 1495 1503 1510 1515 1520 1525 1529 1533 1537 1541 1544 1547 1551 1554 1557 1561 1563 1566 1568 1570 1572 1574 1576 1578 1578 1579 1579 1580 1581
1468 1471 1472 1469 1472 1466 1459 1459 1462 1454 1450 1451 1456 1458 1464 1470 1474 1484 1483 1491 1497 1502 1509 1513 1518 1523 1528 1532 1536 1541 1544 1548 1551 1553 1557 1560 1563 1566 1568 1570 1571 1573 1575 1576 1578 1578 1579 1579 1580
1467 1467 1469 1473 1477 1468 1461 1464 1464 1460 1449 1447 1457 1458 1463 1472 1480 1483 1484 1488 1494 1503 1507 1510 1516 1521 1526 1530 1535 1540 1544 1547 1550 1553 1557 1559 1561 1564 1567 1568 1569 1571 1573 1575 1575 1576 1578 1579 1579
1470 1475 1482 1473 1470 1467 1467 1460 1463 1458 1451 1451 1455 1458 1462 1466 1473 1479 1483 1490 1494 1499 1507 1509 1513 1521 1525 1529 1533 1538 1542 1546 1549 1552 1554 1557 1560 1562 1564 1567 1568 1569 1571 1573 1574 1574 1576 1576 1577
1465 1472 1481 1472 1477 1473 1462 1460 1459 1460 1456 1458 1461 1463 1467 1474 1475 1480 1483 1489 1492 1499 1504 1506 1512 1518 1522 1527 1532 1537 1541 1544 1548 1550 1553 1555 1557 1561 1563 1565 1567 1567 1569 1571 1573 1572 1574 1575 1576
1461 1469 1481 1477 1479 1478 1462 1458 1457 1458 1459 1460 1463 1465 1466 1472 1474 1477 1482 1488 1495 1499 1504 1504 1510 1515 1519 1524 1530 1536 1538 1541 1545 1548 1550 1553 1556 1558 1560 1562 1563 1565 1567 1569 1571 1572 1572 1573 1575
1457 1461 1473 1474 1475 1480 1471 1465 1458 1457 1458 1461 1462 1465 1466 1468 1471 1479 1484 1488 1495 1496 1501 1501 1508 1512 1516 1524 1528 1532 1535 1538 1542 1543 1547 1550 1552 1555 1557 1559 1560 1562 1564 1566 1568 1570 1570 1571 1572
1460 1462 1469 1468 1475 1475 1463 1462 1457 1457 1456 1458 1459 1461 1466 1469 1470 1475 1481 1486 1491 1495 1499 1501 1507 1515 1518 1520 1524 1528 1533 1536 1539 1542 1543 1545 1549 1551 1553 1554 1556 1558 1560 1562 1565 1566 1568 1569 1570
1465 1463 1467 1468 1470 1469 1471 1467 1457 1456 1456 1455 1457 1458 1462 1467 1470 1474 1477 1483 1486 1491 1497 1502 1506 1509 1514 1518 1522 1524 1526 1528 1534 1538 1543 1545 1546 1546 1548 1550 1552 1553 1555 1557 1560 1562 1563 1566 1567
1465 1461 1461 1464 1470 1472 1472 1467 1460 1456 1454 1454 1453 1456 1459 1463 1467 1472 1477 1480 1483 1487 1492 1497 1501 1503 1511 1514 1515 1520 1525 1525 1527 1535 1537 1536 1540 1541 1541 1545 1546 1549 1551 1553 1555 1558 1559 1561 1562
1462 1463 1463 1466 1469 1466 1472 1474 1460 1460 1451 1450 1450 1453 1456 1459 1463 1469 1475 1478 1479 1482 1486 1490 1493 1500 1503 1508 1510 1513 1521 1525 1526 1528 1532 1539 1535 1538 1538 1539 1541 1543 1546 1547 1548 1550 1554 1557 1556
1462 1464 1468 1471 1469 1470 1468 1474 1458 1457 1447 1443 1445 1448 1450 1456 1460 1465 1470 1472 1475 1479 1483 1488 1491 1497 1501 1504 1508 1510 1511 1515 1521 1524 1527 1529 1531 1532 1532 1533 1536 1538 1540 1542 1543 1545 1549 1548 1550
1464 1467 1476 1472 1472 1474 1478 1475 1453 1446 1441 1442 1442 1448 1449 1451 1454 1458 1462 1466 1470 1476 1480 1483 1487 1493 1497 1503 1502 1506 1508 1513 1515 1517 1518 1521 1524 1526 1527 1528 1531 1533 1535 1536 1540 1541 1543 1544 1549
1468 1469 1474 1474 1474 1476 1479 1470 1451 1444 1441 1445 1445 1445 1451 1451 1451 1453 1458 1462 1465 1471 1476 1479 1483 1487 1491 1495 1497 1501 1505 1507 1509 1512 1514 1516 1519 1522 1522 1524 1525 1528 1531 1533 1536 1539 1539 1541 1544
1467 1468 1469 1481 1489 1481 1472 1465 1448 1440 1440 1441 1440 1442 1443 1449 1451 1451 1455 1459 1462 1466 1471 1475 1478 1481 1484 1489 1492 1496 1498 1501 1504 1506 1508 1511 1514 1517 1518 1519 1522 1525 1528 1529 1533 1535 1535 1537 1538
1467 1468 1467 1468 1472 1475 1471 1470 1450 1440 1439 1440 1439 1442 1443 1446 1449 1450 1449 1451 1453 1460 1466 1471 1474 1478 1481 1485 1488 1491 1493 1496 1499 1500 1503 1506 1508 1510 1512 1515 1518 1522 1524 1527 1529 1530 1531 1532 1533
1468 1467 1469 1469 1465 1464 1468 1457 1449 1443 1442 1444 1444 1441 1445 1445 1448 1448 1448 1447 1449 1455 1461 1466 1471 1475 1478 1481 1484 1487 1490 1492 1495 1497 1498 1501 1503 1505 1508 1511 1515 1517 1521 1523 1525 1526 1526 1528 1528
1466 1470 1471 1464 1469 1477 1474 1457 1448 1445 1443 1444 1444 1444 1445 1445 1446 1448 1447 1448 1450 1454 1459 1464 1468 1471 1475 1475 1479 1483 1486 1489 1492 1493 1496 1497 1499 1502 1505 1508 1512 1515 1517 1519 1521 1523 1523 1523 1522